Time,TemperatureF,DewpointF,PressureIn,WindDirection,WindDirectionDegrees,WindSpeedMPH,WindSpeedGustMPH,Humidity,HourlyPrecipIn,Conditions,Clouds,dailyrainin,SoftwareType,DateUTC
2013-03-10 00:02:00,59.0,52.0,30.20,ENE,57,4.0,9.0,79,0.00,,,0.00,,2013-03-10 05:02:00,
2013-03-10 00:11:00,59.0,52.0,30.20,ENE,57,4.0,9.0,79,0.00,,,0.00,,2013-03-10 05:11:00,
2013-03-10 00:22:00,59.0,53.0,30.20,ENE,76,2.0,7.0,80,0.00,,,0.00,,2013-03-10 05:22:00,
2013-03-10 00:32:00,58.0,52.0,30.19,ENE,71,3.0,8.0,81,0.00,,,0.00,,2013-03-10 05:32:00,
2013-03-10 00:42:00,58.0,53.0,30.19,East,87,2.0,8.0,82,0.00,,,0.00,,2013-03-10 05:42:00,
2013-03-10 00:52:00,58.0,53.0,30.19,East,87,2.0,8.0,82,0.00,,,0.00,,2013-03-10 05:52:00,
2013-03-10 01:02:00,58.0,53.0,30.18,East,85,2.0,7.0,83,0.00,,,0.00,,2013-03-10 06:02:00,
2013-03-10 01:11:00,58.0,53.0,30.18,East,85,2.0,7.0,83,0.00,,,0.00,,2013-03-10 06:11:00,
2013-03-10 01:22:00,58.0,54.0,30.18,NE,55,2.0,5.0,85,0.00,,,0.00,,2013-03-10 06:22:00,
2013-03-10 01:32:00,58.0,54.0,30.17,ENE,67,3.0,7.0,85,0.00,,,0.00,,2013-03-10 06:32:00,
2013-03-10 01:42:00,58.0,54.0,30.17,ENE,67,3.0,7.0,85,0.00,,,0.00,,2013-03-10 06:42:00,
2013-03-10 01:52:00,58.0,54.0,30.17,ENE,64,3.0,8.0,86,0.00,,,0.00,,2013-03-10 06:52:00,
2013-03-10 03:02:00,57.0,53.0,30.17,NE,46,1.0,5.0,87,0.00,,,0.00,,2013-03-10 07:02:00,
2013-03-10 03:11:00,57.0,53.0,30.17,NE,46,1.0,5.0,87,0.00,,,0.00,,2013-03-10 07:11:00,
2013-03-10 03:21:00,57.0,53.0,30.16,NE,47,2.0,5.0,88,0.00,,,0.00,,2013-03-10 07:21:00,
2013-03-10 03:32:00,57.0,54.0,30.16,NE,42,2.0,4.0,89,0.00,,,0.00,,2013-03-10 07:32:00,
2013-03-10 03:42:00,56.0,53.0,30.15,ENE,57,1.0,5.0,90,0.00,,,0.00,,2013-03-10 07:42:00,
2013-03-10 03:52:00,56.0,53.0,30.15,ENE,57,1.0,5.0,90,0.00,,,0.00,,2013-03-10 07:52:00,
2013-03-10 04:02:00,56.0,53.0,30.14,NE,46,1.0,5.0,90,0.00,,,0.00,,2013-03-10 08:02:00,
2013-03-10 04:12:00,56.0,53.0,30.14,NE,46,1.0,5.0,90,0.00,,,0.00,,2013-03-10 08:12:00,
2013-03-10 04:21:00,56.0,53.0,30.15,NNE,27,0.0,3.0,91,0.00,,,0.00,,2013-03-10 08:21:00,
2013-03-10 04:32:00,55.0,52.0,30.15,NE,50,0.0,3.0,91,0.00,,,0.00,,2013-03-10 08:32:00,
2013-03-10 04:42:00,55.0,52.0,30.15,NE,50,0.0,3.0,91,0.00,,,0.00,,2013-03-10 08:42:00,
2013-03-10 04:51:00,55.0,53.0,30.14,NE,51,0.0,3.0,92,0.00,,,0.00,,2013-03-10 08:51:00,
2013-03-10 05:02:00,55.0,53.0,30.14,NE,47,0.0,3.0,93,0.00,,,0.00,,2013-03-10 09:02:00,
2013-03-10 05:11:00,55.0,53.0,30.14,NE,47,0.0,3.0,93,0.00,,,0.00,,2013-03-10 09:11:00,
2013-03-10 05:21:00,54.0,52.0,30.14,NE,49,0.0,3.0,94,0.00,,,0.00,,2013-03-10 09:21:00,
2013-03-10 05:32:00,54.0,52.0,30.14,ENE,67,1.0,3.0,94,0.00,,,0.00,,2013-03-10 09:32:00,
2013-03-10 05:41:00,54.0,52.0,30.14,ENE,67,1.0,3.0,94,0.00,,,0.00,,2013-03-10 09:41:00,
2013-03-10 05:51:00,55.0,53.0,30.14,East,93,0.0,3.0,94,0.00,,,0.00,,2013-03-10 09:51:00,
2013-03-10 06:02:00,54.0,52.0,30.14,East,92,0.0,2.0,94,0.00,,,0.00,,2013-03-10 10:02:00,
2013-03-10 06:11:00,54.0,52.0,30.14,East,92,0.0,2.0,94,0.00,,,0.00,,2013-03-10 10:11:00,
2013-03-10 06:21:00,54.0,53.0,30.14,East,92,0.0,2.0,95,0.00,,,0.00,,2013-03-10 10:21:00,
2013-03-10 06:32:00,55.0,54.0,30.14,East,94,1.0,3.0,95,0.00,,,0.00,,2013-03-10 10:32:00,
2013-03-10 06:42:00,55.0,53.0,30.14,East,83,0.0,3.0,94,0.00,,,0.00,,2013-03-10 10:42:00,
2013-03-10 06:52:00,55.0,53.0,30.14,East,83,0.0,3.0,94,0.00,,,0.00,,2013-03-10 10:52:00,
2013-03-10 07:02:00,56.0,54.0,30.15,ENE,78,1.0,5.0,93,0.00,,,0.00,,2013-03-10 11:02:00,
2013-03-10 07:12:00,56.0,54.0,30.15,ENE,78,1.0,5.0,93,0.00,,,0.00,,2013-03-10 11:12:00,
2013-03-10 07:21:00,56.0,54.0,30.15,ENE,69,0.0,4.0,92,0.00,,,0.00,,2013-03-10 11:21:00,
2013-03-10 07:32:00,55.0,53.0,30.15,ENE,66,1.0,3.0,92,0.00,,,0.00,,2013-03-10 11:32:00,
2013-03-10 07:42:00,55.0,53.0,30.15,ENE,66,1.0,3.0,92,0.00,,,0.00,,2013-03-10 11:42:00,
2013-03-10 07:52:00,55.0,53.0,30.15,ENE,65,1.0,5.0,93,0.00,,,0.00,,2013-03-10 11:52:00,
2013-03-10 08:02:00,55.0,53.0,30.15,ENE,65,1.0,5.0,93,0.00,,,0.00,,2013-03-10 12:02:00,
2013-03-10 08:11:00,55.0,53.0,30.15,ENE,65,1.0,5.0,93,0.00,,,0.00,,2013-03-10 12:11:00,
2013-03-10 08:21:00,55.0,53.0,30.16,North,355,0.0,1.0,93,0.00,,,0.00,,2013-03-10 12:21:00,
2013-03-10 08:32:00,55.0,53.0,30.17,ENE,60,0.0,3.0,94,0.00,,,0.00,,2013-03-10 12:32:00,
2013-03-10 08:42:00,55.0,53.0,30.17,ENE,60,0.0,3.0,94,0.00,,,0.00,,2013-03-10 12:42:00,
2013-03-10 08:51:00,56.0,54.0,30.17,ENE,71,0.0,3.0,93,0.00,,,0.00,,2013-03-10 12:51:00,
2013-03-10 09:01:00,56.0,54.0,30.17,ENE,61,0.0,3.0,93,0.00,,,0.00,,2013-03-10 13:01:00,
2013-03-10 09:11:00,56.0,54.0,30.17,ENE,61,0.0,3.0,93,0.00,,,0.00,,2013-03-10 13:11:00,
2013-03-10 09:21:00,57.0,54.0,30.18,NE,51,1.0,3.0,91,0.00,,,0.00,,2013-03-10 13:21:00,
2013-03-10 09:32:00,61.0,57.0,30.18,NNE,31,0.0,5.0,87,0.00,,,0.00,,2013-03-10 13:32:00,
2013-03-10 09:42:00,61.0,57.0,30.18,NNE,31,0.0,5.0,87,0.00,,,0.00,,2013-03-10 13:42:00,
2013-03-10 09:52:00,62.0,57.0,30.19,NE,44,2.0,5.0,83,0.00,,,0.00,,2013-03-10 13:52:00,
2013-03-10 10:02:00,64.0,57.0,30.18,East,95,5.0,10.0,78,0.00,,,0.00,,2013-03-10 14:02:00,
2013-03-10 10:11:00,64.0,57.0,30.18,East,95,5.0,10.0,78,0.00,,,0.00,,2013-03-10 14:11:00,
2013-03-10 10:22:00,64.0,56.0,30.19,East,80,4.0,8.0,75,0.00,,,0.00,,2013-03-10 14:22:00,
2013-03-10 10:32:00,66.0,57.0,30.19,NE,48,3.0,9.0,72,0.00,,,0.00,,2013-03-10 14:32:00,
2013-03-10 10:42:00,66.0,57.0,30.19,NE,48,3.0,9.0,72,0.00,,,0.00,,2013-03-10 14:42:00,
2013-03-10 10:51:00,68.0,57.0,30.18,NE,53,6.0,10.0,69,0.00,,,0.00,,2013-03-10 14:51:00,
2013-03-10 11:01:00,70.0,57.0,30.19,ESE,114,5.0,12.0,64,0.00,,,0.00,,2013-03-10 15:01:00,
2013-03-10 11:11:00,70.0,57.0,30.19,ESE,114,5.0,12.0,64,0.00,,,0.00,,2013-03-10 15:11:00,
2013-03-10 11:21:00,70.0,56.0,30.19,SE,136,5.0,14.0,61,0.00,,,0.00,,2013-03-10 15:21:00,
2013-03-10 11:32:00,72.0,56.0,30.18,NE,51,6.0,13.0,58,0.00,,,0.00,,2013-03-10 15:32:00,
2013-03-10 11:42:00,72.0,56.0,30.18,NE,51,6.0,13.0,58,0.00,,,0.00,,2013-03-10 15:42:00,
2013-03-10 11:52:00,72.0,55.0,30.17,ESE,105,7.0,16.0,55,0.00,,,0.00,,2013-03-10 15:52:00,
2013-03-10 12:02:00,74.0,56.0,30.16,East,100,7.0,17.0,54,0.00,,,0.00,,2013-03-10 16:02:00,
2013-03-10 12:12:00,74.0,56.0,30.16,East,100,7.0,17.0,54,0.00,,,0.00,,2013-03-10 16:12:00,
2013-03-10 12:21:00,74.0,56.0,30.14,SE,139,10.0,19.0,53,0.00,,,0.00,,2013-03-10 16:21:00,
2013-03-10 12:32:00,75.0,56.0,30.14,East,98,10.0,19.0,51,0.00,,,0.00,,2013-03-10 16:32:00,
2013-03-10 12:42:00,75.0,56.0,30.14,East,98,10.0,19.0,51,0.00,,,0.00,,2013-03-10 16:42:00,
2013-03-10 12:52:00,76.0,57.0,30.14,East,90,10.0,21.0,51,0.00,,,0.00,,2013-03-10 16:52:00,
2013-03-10 13:01:00,76.0,56.0,30.14,ESE,107,11.0,18.0,50,0.00,,,0.00,,2013-03-10 17:01:00,
2013-03-10 13:11:00,76.0,56.0,30.14,ESE,107,11.0,18.0,50,0.00,,,0.00,,2013-03-10 17:11:00,
2013-03-10 13:21:00,76.0,55.0,30.12,ENE,70,10.0,18.0,49,0.00,,,0.00,,2013-03-10 17:21:00,
2013-03-10 13:32:00,77.0,57.0,30.13,East,90,8.0,18.0,50,0.00,,,0.00,,2013-03-10 17:32:00,
2013-03-10 13:41:00,77.0,57.0,30.13,East,90,8.0,18.0,50,0.00,,,0.00,,2013-03-10 17:41:00,
2013-03-10 13:51:00,77.0,57.0,30.12,ESE,115,5.0,18.0,51,0.00,,,0.00,,2013-03-10 17:51:00,
2013-03-10 14:01:00,77.0,57.0,30.12,East,91,7.0,16.0,51,0.00,,,0.00,,2013-03-10 18:01:00,
2013-03-10 14:12:00,77.0,57.0,30.12,East,91,7.0,16.0,51,0.00,,,0.00,,2013-03-10 18:12:00,
2013-03-10 14:22:00,79.0,57.0,30.12,East,96,7.0,15.0,47,0.00,,,0.00,,2013-03-10 18:22:00,
2013-03-10 14:32:00,78.0,56.0,30.12,East,79,7.0,15.0,46,0.00,,,0.00,,2013-03-10 18:32:00,
2013-03-10 14:42:00,78.0,56.0,30.12,East,79,7.0,15.0,46,0.00,,,0.00,,2013-03-10 18:42:00,
2013-03-10 14:52:00,78.0,56.0,30.11,East,89,8.0,17.0,47,0.00,,,0.00,,2013-03-10 18:52:00,
2013-03-10 15:02:00,79.0,56.0,30.10,ENE,75,6.0,15.0,45,0.00,,,0.00,,2013-03-10 19:02:00,
2013-03-10 15:11:00,79.0,56.0,30.10,ENE,75,6.0,15.0,45,0.00,,,0.00,,2013-03-10 19:11:00,
2013-03-10 15:22:00,79.0,56.0,30.10,East,88,8.0,15.0,45,0.00,,,0.00,,2013-03-10 19:22:00,
2013-03-10 15:32:00,81.0,57.0,30.09,ESE,107,4.0,17.0,44,0.00,,,0.00,,2013-03-10 19:32:00,
2013-03-10 15:42:00,81.0,57.0,30.09,ESE,107,4.0,17.0,44,0.00,,,0.00,,2013-03-10 19:42:00,
2013-03-10 15:52:00,81.0,56.0,30.09,East,82,7.0,13.0,42,0.00,,,0.00,,2013-03-10 19:52:00,
2013-03-10 16:02:00,81.0,56.0,30.09,East,90,8.0,16.0,43,0.00,,,0.00,,2013-03-10 20:02:00,
2013-03-10 16:12:00,81.0,56.0,30.09,East,90,8.0,16.0,43,0.00,,,0.00,,2013-03-10 20:12:00,
2013-03-10 16:22:00,80.0,56.0,30.08,ENE,67,4.0,14.0,44,0.00,,,0.00,,2013-03-10 20:22:00,
2013-03-10 16:32:00,79.0,56.0,30.08,NE,40,7.0,15.0,45,0.00,,,0.00,,2013-03-10 20:32:00,
2013-03-10 16:43:00,79.0,56.0,30.08,NE,40,7.0,15.0,45,0.00,,,0.00,,2013-03-10 20:43:00,
2013-03-10 16:52:00,81.0,56.0,30.08,SSE,161,6.0,12.0,43,0.00,,,0.00,,2013-03-10 20:52:00,
2013-03-10 17:02:00,81.0,56.0,30.08,East,101,6.0,14.0,43,0.00,,,0.00,,2013-03-10 21:02:00,
2013-03-10 17:12:00,81.0,56.0,30.08,East,101,6.0,14.0,43,0.00,,,0.00,,2013-03-10 21:12:00,
2013-03-10 17:23:00,81.0,56.0,30.07,East,88,7.0,14.0,43,0.00,,,0.00,,2013-03-10 21:23:00,
2013-03-10 17:32:00,80.0,55.0,30.07,NE,55,5.0,15.0,43,0.00,,,0.00,,2013-03-10 21:32:00,
2013-03-10 17:42:00,80.0,55.0,30.07,NE,55,5.0,15.0,43,0.00,,,0.00,,2013-03-10 21:42:00,
2013-03-10 17:52:00,79.0,55.0,30.07,East,80,6.0,10.0,44,0.00,,,0.00,,2013-03-10 21:52:00,
2013-03-10 18:03:00,79.0,56.0,30.07,ENE,74,8.0,11.0,45,0.00,,,0.00,,2013-03-10 22:03:00,
2013-03-10 18:12:00,79.0,56.0,30.07,ENE,74,8.0,11.0,45,0.00,,,0.00,,2013-03-10 22:12:00,
2013-03-10 18:22:00,76.0,55.0,30.07,East,85,6.0,13.0,49,0.00,,,0.00,,2013-03-10 22:22:00,
2013-03-10 18:32:00,77.0,56.0,30.07,East,82,4.0,13.0,48,0.00,,,0.00,,2013-03-10 22:32:00,
2013-03-10 18:43:00,77.0,56.0,30.07,East,82,4.0,13.0,48,0.00,,,0.00,,2013-03-10 22:43:00,
2013-03-10 18:52:00,75.0,55.0,30.08,ESE,103,8.0,15.0,50,0.00,,,0.00,,2013-03-10 22:52:00,
2013-03-10 19:03:00,74.0,55.0,30.08,ESE,109,7.0,15.0,52,0.00,,,0.00,,2013-03-10 23:03:00,
2013-03-10 19:12:00,74.0,55.0,30.08,ESE,109,7.0,15.0,52,0.00,,,0.00,,2013-03-10 23:12:00,
2013-03-10 19:23:00,73.0,55.0,30.08,East,101,6.0,12.0,53,0.00,,,0.00,,2013-03-10 23:23:00,
2013-03-10 19:33:00,72.0,54.0,30.09,ESE,105,6.0,11.0,54,0.00,,,0.00,,2013-03-10 23:33:00,
2013-03-10 19:42:00,72.0,54.0,30.09,ESE,105,6.0,11.0,54,0.00,,,0.00,,2013-03-10 23:42:00,
2013-03-10 19:52:00,71.0,55.0,30.09,ENE,59,6.0,12.0,57,0.00,,,0.00,,2013-03-10 23:52:00,
2013-03-10 20:03:00,70.0,55.0,30.10,East,90,5.0,13.0,60,0.00,,,0.00,,2013-03-11 00:03:00,
2013-03-10 20:13:00,70.0,55.0,30.10,East,90,5.0,13.0,60,0.00,,,0.00,,2013-03-11 00:13:00,
2013-03-10 20:23:00,69.0,55.0,30.10,East,83,3.0,8.0,62,0.00,,,0.00,,2013-03-11 00:23:00,
2013-03-10 20:33:00,68.0,55.0,30.11,East,94,5.0,10.0,63,0.00,,,0.00,,2013-03-11 00:33:00,
2013-03-10 20:43:00,68.0,55.0,30.11,East,94,5.0,10.0,63,0.00,,,0.00,,2013-03-11 00:43:00,
2013-03-10 20:52:00,67.0,55.0,30.11,East,86,6.0,11.0,65,0.00,,,0.00,,2013-03-11 00:52:00,
2013-03-10 21:03:00,66.0,55.0,30.11,East,92,4.0,8.0,67,0.00,,,0.00,,2013-03-11 01:03:00,
2013-03-10 21:13:00,66.0,55.0,30.11,East,92,4.0,8.0,67,0.00,,,0.00,,2013-03-11 01:13:00,
2013-03-10 21:23:00,66.0,55.0,30.11,East,92,4.0,8.0,67,0.00,,,0.00,,2013-03-11 01:23:00,
2013-03-10 21:32:00,65.0,55.0,30.12,East,79,3.0,9.0,70,0.00,,,0.00,,2013-03-11 01:32:00,
2013-03-10 21:43:00,65.0,55.0,30.12,East,79,3.0,9.0,70,0.00,,,0.00,,2013-03-11 01:43:00,
2013-03-10 21:53:00,64.0,55.0,30.12,East,88,4.0,8.0,73,0.00,,,0.00,,2013-03-11 01:53:00,
2013-03-10 22:03:00,64.0,56.0,30.12,NE,52,5.0,8.0,75,0.00,,,0.00,,2013-03-11 02:03:00,
2013-03-10 22:12:00,64.0,56.0,30.12,NE,52,5.0,8.0,75,0.00,,,0.00,,2013-03-11 02:12:00,
2013-03-10 22:23:00,64.0,56.0,30.13,ESE,113,4.0,9.0,75,0.00,,,0.00,,2013-03-11 02:23:00,
2013-03-10 22:32:00,63.0,55.0,30.13,East,84,2.0,7.0,76,0.00,,,0.00,,2013-03-11 02:32:00,
2013-03-10 22:42:00,63.0,55.0,30.13,East,84,2.0,7.0,76,0.00,,,0.00,,2013-03-11 02:42:00,
2013-03-10 22:52:00,62.0,55.0,30.13,ENE,67,3.0,7.0,77,0.00,,,0.00,,2013-03-11 02:52:00,
2013-03-10 23:02:00,62.0,55.0,30.13,ENE,59,3.0,7.0,79,0.00,,,0.00,,2013-03-11 03:02:00,
2013-03-10 23:12:00,62.0,55.0,30.13,ENE,59,3.0,7.0,79,0.00,,,0.00,,2013-03-11 03:12:00,
2013-03-10 23:22:00,62.0,56.0,30.13,ESE,105,3.0,7.0,80,0.00,,,0.00,,2013-03-11 03:22:00,
2013-03-10 23:32:00,61.0,55.0,30.13,East,97,2.0,7.0,81,0.00,,,0.00,,2013-03-11 03:32:00,
2013-03-10 23:42:00,61.0,55.0,30.13,East,97,2.0,7.0,81,0.00,,,0.00,,2013-03-11 03:42:00,
2013-03-10 23:52:00,60.0,55.0,30.13,East,89,2.0,5.0,83,0.00,,,0.00,,2013-03-11 03:52:00,